1487941201.1,3926,9.69,71728.0,-8.55,-33.83,-33.15,0,*69
1487941202.32,3927,9.69,71704.3,-8.51,-33.21,-32.57,0,*63
1487941203.58,3928,9.69,71696.8,-8.51,-33.09,-32.39,0,*6E
1487941204.79,3929,9.69,71722.3,-8.55,-33.37,-32.69,0,*63
1487941206.04,3930,9.69,71702.0,-8.51,-33.27,-32.57,0,*63
1487941207.26,3931,9.69,71676.3,-8.51,-32.91,-32.01,0,*6D
1487941208.49,3932,9.69,71690.8,-8.51,-32.57,-31.67,0,*67
1487941209.74,3933,9.69,71694.3,-8.51,-32.35,-31.51,0,*67
1487941210.95,3934,9.69,71746.8,-8.49,-32.35,-31.45,0,*6C
1487941212.18,3935,9.69,71706.3,-8.49,-32.19,-31.29,0,*69
1487941213.44,3936,9.69,71744.3,-8.47,-31.95,-31.05,0,*6D
1487941214.64,3937,9.69,71702.0,-8.49,-32.51,-31.79,0,*62
1487941215.93,3938,9.69,71716.3,-8.47,-31.73,-30.89,0,*6E
1487941217.22,3939,9.69,71724.0,-8.47,-31.57,-30.73,0,*6C
1487941218.48,3940,9.69,71728.0,-8.45,-31.51,-30.51,0,*66
1487941219.76,3941,9.69,71734.8,-8.43,-31.85,-30.95,0,*60
1487941220.99,3942,9.69,71746.0,-8.41,-31.45,-30.55,0,*61
1487941222.21,3943,9.69,71752.0,-8.41,-31.67,-30.95,0,*6C
1487941223.47,3944,9.69,71774.3,-8.39,-31.79,-30.89,0,*66
1487941224.73,3945,9.69,71754.0,-8.39,-32.39,-31.51,0,*64
1487941226.01,3946,9.69,71746.0,-8.39,-33.61,-32.75,0,*6E
1487941227.24,3947,9.69,71724.0,-8.37,-34.01,-33.21,0,*60
1487941228.48,3948,9.69,71730.5,-8.41,-34.13,-33.27,0,*6B
1487941229.73,3949,9.69,71704.8,-8.39,-33.49,-32.57,0,*6B
1487941230.96,3950,9.69,71668.8,-8.41,-33.31,-32.35,0,*67
1487941232.23,3951,9.69,71666.8,-8.39,-33.61,-32.85,0,*67
1487941233.44,3952,9.69,71690.8,-8.41,-33.83,-32.91,0,*62
1487941234.7,3953,9.69,71694.5,-8.41,-33.77,-32.85,0,*6D
1487941235.91,3954,9.69,71708.8,-8.41,-33.67,-32.69,0,*69
1487941237.16,3955,9.69,71704.3,-8.41,-33.61,-32.75,0,*63
1487941238.4,3956,9.69,71710.3,-8.41,-33.67,-32.75,0,*66
1487941239.61,3957,9.69,71724.5,-8.41,-33.67,-32.69,0,*6A
1487941240.86,3958,9.69,71746.8,-8.43,-33.89,-32.91,0,*60
1487941242.11,3959,9.69,71712.5,-8.43,-34.19,-33.15,0,*62
1487941243.39,3960,9.69,71706.5,-8.43,-34.35,-33.31,0,*60
1487941244.63,3961,9.69,71694.3,-8.45,-34.47,-33.49,0,*6D
1487941245.88,3962,9.69,71668.5,-8.45,-34.47,-33.27,0,*66
1487941247.12,3963,9.69,71692.0,-8.45,-34.25,-33.09,0,*6F
1487941248.35,3964,9.69,71686.8,-8.47,-34.41,-33.21,0,*62
1487941249.59,3965,9.69,71704.5,-8.47,-34.47,-33.37,0,*62
1487941250.88,3966,9.69,71744.8,-8.47,-34.53,-33.31,0,*62
1487941252.11,3967,9.69,71746.3,-8.49,-34.31,-33.21,0,*68
1487941253.31,3968,9.69,71712.8,-8.49,-34.41,-33.21,0,*60
1487941254.51,3969,9.69,71698.3,-8.49,-34.41,-33.15,0,*66
1487941255.8,3970,9.69,71700.0,-8.51,-34.19,-33.09,0,*67
1487941257.03,3971,9.69,71684.5,-8.55,-34.83,-33.67,0,*69
1487941258.26,3972,9.69,71698.8,-8.55,-34.95,-33.67,0,*6D
1487941259.52,3973,9.69,71666.8,-8.55,-34.35,-33.09,0,*6E
1487941260.77,3974,9.69,71692.0,-8.55,-34.01,-32.63,0,*63
1487941262.0,3975,9.69,71732.8,-8.55,-34.07,-32.63,0,*64
1487941263.26,3976,9.69,71748.5,-8.55,-33.89,-32.75,0,*61
1487941264.52,3977,9.69,71768.3,-8.55,-34.01,-32.79,0,*6B
1487941265.72,3978,9.69,71782.8,-8.55,-34.07,-32.91,0,*64
1487941266.93,3979,9.69,71764.5,-8.55,-34.07,-32.91,0,*65
1487941268.2,3980,9.69,71740.8,-8.55,-34.01,-32.75,0,*6F
1487941269.45,3981,9.69,71710.0,-8.55,-34.19,-32.97,0,*6B
1487941270.67,3982,9.69,71702.3,-8.55,-34.41,-33.09,0,*63
1487941271.9,3983,9.69,71700.3,-8.55,-33.83,-32.63,0,*66
1487941273.16,3984,9.69,71690.3,-8.59,-34.53,-33.27,0,*66
1487941274.42,3985,9.69,71668.8,-8.59,-34.65,-33.43,0,*60
1487941275.69,3986,9.69,71672.5,-8.61,-34.71,-33.31,0,*68
1487941276.94,3987,9.69,71688.8,-8.59,-34.53,-32.97,0,*6F
1487941278.2,3988,9.69,71678.8,-8.61,-34.65,-33.21,0,*62
1487941279.46,3989,9.69,71690.5,-8.61,-33.77,-32.35,0,*63
1487941280.71,3990,9.69,71702.8,-8.61,-33.77,-32.35,0,*6B
1487941281.94,3991,9.69,71724.5,-8.59,-33.83,-32.29,0,*67
1487941283.16,3992,9.69,71764.3,-8.59,-33.73,-32.01,0,*61
1487941284.38,3993,9.69,71742.0,-8.59,-33.27,-31.67,0,*62
1487941285.61,3994,9.69,71748.0,-8.59,-32.75,-31.17,0,*64
1487941286.86,3995,9.69,71746.3,-8.59,-32.97,-31.51,0,*6B
1487941288.11,3996,9.69,71724.0,-8.59,-33.49,-31.73,0,*6A
1487941289.34,3997,9.69,71770.5,-8.59,-33.49,-32.01,0,*6D
1487941290.58,3998,9.69,71760.3,-8.59,-33.31,-31.85,0,*62
1487941291.83,3999,9.69,71786.8,-8.55,-33.31,-31.73,0,*66
1487941293.08,4000,9.69,71786.5,-8.55,-32.97,-31.39,0,*6B
1487941294.33,4001,9.69,71782.5,-8.55,-33.43,-31.85,0,*65
1487941295.56,4002,9.69,71798.0,-8.55,-33.49,-32.01,0,*63
1487941296.81,4003,9.69,71778.3,-8.55,-33.89,-32.29,0,*64
1487941298.07,4004,9.69,71798.8,-8.51,-34.01,-32.51,0,*6F
1487941299.33,4005,9.69,71792.0,-8.55,-33.77,-32.19,0,*60
1487941300.61,4006,9.69,71770.3,-8.51,-33.49,-31.95,0,*6D
1487941301.85,4007,9.69,71802.0,-8.51,-33.37,-31.67,0,*68
1487941303.13,4008,9.69,71780.3,-8.51,-33.61,-31.95,0,*69
1487941304.39,4009,9.69,71754.0,-8.51,-33.67,-31.95,0,*6E
1487941305.62,4010,9.69,71758.5,-8.51,-33.67,-32.01,0,*68
1487941306.9,4011,9.69,71744.0,-8.51,-33.27,-31.61,0,*68
1487941308.16,4012,9.69,71774.3,-8.51,-32.69,-31.11,0,*67
1487941309.39,4013,9.69,71750.0,-8.49,-33.37,-31.73,0,*61
1487941310.62,4014,9.69,71734.8,-8.49,-33.73,-32.13,0,*63
1487941311.88,4015,9.69,71732.3,-8.47,-34.07,-32.63,0,*6F
1487941313.11,4016,9.69,71720.5,-8.49,-33.55,-31.91,0,*6C
1487941314.36,4017,9.69,71710.5,-8.51,-33.09,-31.67,0,*64
1487941315.62,4018,9.69,71794.8,-8.47,-33.03,-31.39,0,*6D
1487941316.87,4019,9.69,71794.0,-8.49,-33.89,-32.45,0,*68
1487941318.1,4020,9.69,71780.3,-8.49,-33.89,-32.35,0,*65
1487941319.31,4021,9.69,71762.8,-8.49,-33.95,-32.51,0,*6B
1487941320.59,4022,9.69,71790.5,-8.51,-34.31,-32.75,0,*6E
1487941321.86,4023,9.69,71746.3,-8.51,-34.19,-32.69,0,*68
1487941323.09,4024,9.69,71696.3,-8.51,-34.13,-32.39,0,*60
1487941324.32,4025,9.69,71686.5,-8.51,-33.95,-32.39,0,*68
1487941325.56,4026,9.69,71694.3,-8.49,-34.31,-32.69,0,*6E
1487941326.85,4027,9.69,71658.5,-8.51,-34.53,-32.85,0,*60
1487941328.1,4028,9.69,71674.5,-8.51,-34.19,-32.57,0,*6E
1487941329.36,4029,9.69,71662.3,-8.55,-34.53,-32.79,0,*69
1487941330.6,4030,9.69,71638.8,-8.51,-34.59,-33.03,0,*63
1487941331.86,4031,9.69,71666.0,-8.51,-34.53,-32.91,0,*62
1487941333.09,4032,9.69,71680.5,-8.55,-34.19,-32.69,0,*6C
1487941334.35,4033,9.69,71678.8,-8.55,-34.35,-32.63,0,*69
1487941335.6,4034,9.69,71680.0,-8.55,-34.83,-33.31,0,*65
1487941336.84,4035,9.69,71696.8,-8.51,-34.59,-33.03,0,*66
1487941338.1,4036,9.69,71720.5,-8.55,-34.35,-32.79,0,*67
1487941339.35,4037,9.63,71714.5,-8.59,-34.19,-32.63,0,*6F
1487941340.55,4038,9.69,71698.8,-8.59,-34.59,-32.91,0,*69
1487941341.75,4039,9.69,71694.0,-8.59,-34.41,-32.57,0,*6B
1487941342.98,4040,9.69,71696.3,-8.55,-34.41,-32.75,0,*69
1487941344.23,4041,9.69,71664.5,-8.55,-34.19,-32.45,0,*66
1487941345.45,4042,9.69,71648.8,-8.59,-33.89,-32.23,0,*67
1487941346.68,4043,9.69,71678.5,-8.55,-34.07,-32.29,0,*61
1487941347.94,4044,9.69,71640.3,-8.59,-34.35,-32.75,0,*62
1487941349.2,4045,9.69,71666.5,-8.59,-33.73,-32.07,0,*63
1487941350.4,4046,9.69,71646.3,-8.55,-33.67,-32.01,0,*6F
1487941351.63,4047,9.69,71646.8,-8.55,-33.83,-32.07,0,*62
1487941352.88,4048,9.69,71654.8,-8.55,-33.89,-32.19,0,*68
1487941354.14,4049,9.69,71654.8,-8.55,-33.89,-32.19,0,*69
1487941355.39,4050,9.69,71686.8,-8.59,-34.19,-32.45,0,*6A
1487941356.64,4051,9.69,71710.8,-8.59,-34.35,-32.75,0,*66
1487941357.84,4052,9.69,71716.5,-8.55,-34.41,-32.57,0,*6A
1487941359.06,4053,9.69,71726.0,-8.55,-34.35,-32.57,0,*68
1487941360.29,4054,9.69,71700.3,-8.55,-34.41,-32.63,0,*6B
1487941361.52,4055,9.69,71672.8,-8.59,-34.65,-32.91,0,*6D
1487941362.75,4056,9.69,71700.3,-8.61,-34.89,-33.15,0,*6A
1487941364.0,4057,9.69,71662.0,-8.61,-35.17,-33.49,0,*64
1487941365.23,4058,9.69,71694.3,-8.59,-35.17,-33.31,0,*6F
1487941366.48,4059,9.69,71726.5,-8.59,-34.83,-33.09,0,*69
1487941367.75,4060,9.69,71690.0,-8.61,-34.59,-32.85,0,*6A
1487941368.98,4061,9.69,71646.0,-8.61,-34.89,-33.21,0,*69
1487941370.21,4062,9.69,71666.5,-8.63,-35.07,-33.21,0,*6F
1487941371.41,4063,9.69,71614.3,-8.63,-35.17,-33.55,0,*6C
1487941372.63,4064,9.69,71640.0,-8.63,-35.17,-33.49,0,*66
1487941373.89,4065,9.69,71644.3,-8.65,-35.07,-33.37,0,*69
1487941375.13,4066,9.69,71708.3,-8.65,-34.71,-33.03,0,*6D
1487941376.39,4067,9.69,71682.0,-8.65,-34.77,-33.09,0,*60
1487941377.6,4068,9.69,71682.5,-8.63,-34.47,-32.69,0,*6D
1487941378.84,4069,9.69,71666.0,-8.65,-34.71,-33.03,0,*62
1487941380.13,4070,9.69,71652.5,-8.65,-34.65,-32.75,0,*6F
1487941381.41,4071,9.69,71648.3,-8.65,-34.95,-33.09,0,*6B
1487941382.65,4072,9.69,71662.0,-8.63,-35.01,-33.31,0,*69
1487941383.9,4073,9.69,71666.3,-8.65,-35.07,-33.21,0,*69
1487941385.19,4074,9.69,71662.5,-8.65,-35.23,-33.27,0,*6E
1487941386.45,4075,9.69,71686.5,-8.65,-35.07,-33.21,0,*6F
1487941387.68,4076,9.69,71696.0,-8.67,-34.89,-32.85,0,*66
1487941388.94,4077,9.69,71688.0,-8.67,-34.65,-32.75,0,*6A
1487941390.2,4078,9.69,71734.8,-8.69,-35.01,-32.97,0,*64
1487941391.43,4079,9.69,71606.5,-8.69,-35.13,-33.15,0,*6D
1487941392.68,4080,9.69,71686.3,-8.69,-35.47,-33.61,0,*69
1487941393.95,4081,9.69,71668.3,-8.69,-35.01,-33.09,0,*64
1487941395.21,4082,9.69,71680.0,-8.67,-34.95,-33.09,0,*65
1487941396.41,4083,9.69,71662.8,-8.67,-34.89,-33.03,0,*63
1487941397.65,4084,9.69,71704.5,-8.69,-34.77,-32.91,0,*61
1487941398.92,4085,9.69,71704.0,-8.69,-34.59,-32.79,0,*6A
1487941400.15,4086,9.69,71728.8,-8.67,-34.53,-32.57,0,*61
1487941401.41,4087,9.69,71682.5,-8.67,-34.19,-32.19,0,*64
1487941402.7,4088,9.69,71698.0,-8.69,-34.53,-32.75,0,*61
1487941403.94,4089,9.69,71708.0,-8.67,-34.53,-32.69,0,*63
1487941405.2,4090,9.69,71688.0,-8.69,-33.43,-31.29,0,*64
1487941406.41,4091,9.69,71688.0,-8.67,-33.37,-31.29,0,*68
1487941407.64,4092,9.69,71720.3,-8.67,-33.03,-31.11,0,*67
1487941408.92,4093,9.69,71734.8,-8.65,-32.85,-30.95,0,*66
1487941410.15,4094,9.69,71728.5,-8.63,-32.85,-31.01,0,*6B
1487941411.38,4095,9.69,71792.0,-8.63,-33.31,-31.29,0,*6E
1487941412.6,4096,9.69,71800.8,-8.63,-33.37,-31.45,0,*61
1487941413.85,4097,9.69,71788.3,-8.63,-33.61,-31.61,0,*65
1487941415.06,4098,9.69,71736.0,-8.59,-33.55,-31.57,0,*61
1487941416.32,4099,9.69,71768.8,-8.61,-33.95,-31.95,0,*69
1487941417.58,4100,9.69,71720.0,-8.61,-33.77,-31.79,0,*66
1487941418.8,4101,9.69,71732.8,-8.59,-34.41,-32.45,0,*62
1487941420.09,4102,9.69,71760.5,-8.61,-34.65,-32.63,0,*68
1487941421.28,4103,9.69,71704.0,-8.59,-34.41,-32.57,0,*63
1487941422.48,4104,9.69,71700.8,-8.59,-34.41,-32.57,0,*64
1487941423.74,4105,9.69,71686.0,-8.59,-34.65,-32.75,0,*63
1487941424.96,4106,9.69,71610.0,-8.61,-35.17,-33.15,0,*68
1487941426.22,4107,9.69,71654.8,-8.61,-35.23,-33.21,0,*69
1487941427.51,4108,9.69,71672.0,-8.61,-35.07,-32.85,0,*6F
1487941428.71,4109,9.69,71668.3,-8.59,-34.59,-32.57,0,*60
1487941429.98,4110,9.69,71678.8,-8.61,-34.65,-32.69,0,*61
1487941431.25,4111,9.69,71638.8,-8.61,-34.65,-32.69,0,*60
1487941432.51,4112,9.69,71620.0,-8.61,-34.59,-32.63,0,*66
1487941433.74,4113,9.69,71666.5,-8.61,-34.41,-32.35,0,*6D
1487941434.94,4114,9.69,71644.8,-8.59,-34.13,-32.23,0,*61
1487941436.21,4115,9.69,71688.8,-8.61,-34.65,-32.69,0,*64
1487941437.5,4116,9.69,71692.0,-8.61,-34.65,-32.63,0,*6D
1487941438.73,4117,9.69,71592.3,-8.61,-34.13,-32.13,0,*6A
1487941440.01,4118,9.69,71650.5,-8.61,-33.61,-31.73,0,*62
1487941441.24,4119,9.69,71656.8,-8.59,-34.59,-32.63,0,*66
1487941442.46,4120,9.69,71642.0,-8.59,-33.83,-31.91,0,*62
1487941443.69,4121,9.69,71618.0,-8.59,-34.01,-32.23,0,*64
1487941444.91,4122,9.69,71628.5,-8.59,-34.19,-32.23,0,*6E
1487941446.15,4123,9.69,71642.3,-8.61,-34.41,-32.51,0,*6C
1487941447.42,4124,9.69,71624.5,-8.61,-34.65,-32.69,0,*66
1487941448.67,4125,9.69,71622.3,-8.59,-34.19,-32.29,0,*63
1487941449.92,4126,9.69,71626.5,-8.55,-34.19,-32.19,0,*6F
1487941451.15,4127,9.69,71626.8,-8.59,-34.41,-32.45,0,*66
1487941452.34,4128,9.69,71576.0,-8.59,-33.67,-31.67,0,*69
1487941453.57,4129,9.69,71588.0,-8.59,-34.25,-32.29,0,*60
1487941454.76,4130,9.69,71576.8,-8.59,-33.83,-32.01,0,*69
1487941456.01,4131,9.69,71594.8,-8.55,-34.19,-32.29,0,*6A
1487941457.26,4132,9.69,71628.8,-8.55,-34.19,-32.29,0,*69
1487941458.46,4133,9.69,71680.8,-8.55,-34.41,-32.57,0,*6C
1487941459.72,4134,9.69,71678.5,-8.55,-34.53,-32.63,0,*6F
1487941460.91,4135,9.69,71670.0,-8.55,-34.25,-32.57,0,*68
1487941462.15,4136,9.69,71690.3,-8.55,-34.07,-32.19,0,*61
1487941463.38,4137,9.69,71682.3,-8.51,-33.83,-32.01,0,*66
1487941464.64,4138,9.69,71668.5,-8.51,-34.31,-32.51,0,*62
1487941465.87,4139,9.69,71676.3,-8.51,-34.89,-33.21,0,*66
1487941467.1,4140,9.69,71678.0,-8.55,-35.13,-33.43,0,*6A
1487941468.36,4141,9.69,71722.0,-8.55,-34.83,-33.09,0,*6D
1487941469.59,4142,9.69,71718.5,-8.59,-34.59,-32.79,0,*63
1487941470.8,4143,9.69,71714.5,-8.59,-34.59,-32.91,0,*64
1487941472.08,4144,9.69,71700.5,-8.61,-34.65,-32.97,0,*61
1487941473.34,4145,9.69,71710.8,-8.59,-34.53,-32.63,0,*65
1487941474.57,4146,9.69,71666.0,-8.59,-34.59,-32.79,0,*67
1487941475.79,4147,9.69,71658.0,-8.59,-34.83,-33.15,0,*6A
1487941477.03,4148,9.69,71668.5,-8.59,-35.01,-33.31,0,*68
1487941478.25,4149,9.69,71678.3,-8.59,-34.83,-33.15,0,*64
1487941479.51,4150,9.69,71706.3,-8.61,-34.71,-32.97,0,*61
1487941480.75,4151,9.69,71644.5,-8.61,-34.71,-33.15,0,*6B
1487941482.02,4152,9.69,71666.0,-8.61,-34.59,-32.79,0,*69
1487941483.23,4153,9.69,71676.0,-8.59,-34.71,-33.03,0,*65
1487941484.49,4154,9.69,71624.3,-8.61,-34.59,-32.85,0,*6C
1487941485.78,4155,9.69,71630.5,-8.61,-35.07,-33.49,0,*66
1487941487.02,4156,9.69,71630.0,-8.61,-34.47,-32.69,0,*63
1487941488.28,4157,9.69,71644.8,-8.61,-34.71,-32.97,0,*66
1487941489.55,4158,9.69,71638.3,-8.61,-34.47,-32.79,0,*6C
1487941490.81,4159,9.69,71646.3,-8.61,-34.83,-33.15,0,*6E
1487941492.01,4160,9.69,71686.5,-8.63,-34.89,-33.21,0,*6B
1487941493.25,4161,9.69,71720.0,-8.63,-34.47,-32.79,0,*64
1487941494.49,4162,9.69,71756.0,-8.63,-34.59,-32.85,0,*6B
1487941495.73,4163,9.69,71740.0,-8.63,-34.59,-32.85,0,*6A
1487941496.97,4164,9.69,71672.8,-8.63,-34.59,-32.85,0,*6D
1487941498.17,4165,9.69,71678.5,-8.63,-34.89,-33.21,0,*6E
1487941499.45,4166,9.69,71670.3,-8.65,-35.07,-33.31,0,*6D
1487941500.65,4167,9.69,71682.5,-8.63,-34.89,-33.21,0,*6C
1487941501.88,4168,9.69,71714.0,-8.63,-34.83,-33.15,0,*6E
1487941503.13,4169,9.69,71666.5,-8.65,-34.31,-32.57,0,*67
1487941504.37,4170,9.69,71674.0,-8.63,-34.31,-32.69,0,*64
1487941505.6,4171,9.69,71660.0,-8.63,-34.41,-32.79,0,*63
1487941506.88,4172,9.69,71664.5,-8.65,-34.65,-33.09,0,*66
1487941508.09,4173,9.69,71640.0,-8.63,-34.89,-33.21,0,*69
1487941509.34,4174,9.69,71646.0,-8.63,-35.07,-33.49,0,*67
1487941510.63,4175,9.69,71638.3,-8.65,-35.07,-33.43,0,*6A
1487941511.86,4176,9.69,71590.0,-8.63,-34.89,-33.31,0,*6D
1487941513.1,4177,9.69,71760.0,-8.65,-35.41,-33.83,0,*66
1487941514.36,4178,9.69,71688.0,-8.65,-34.89,-33.27,0,*62
1487941515.56,4179,9.69,71666.8,-8.63,-33.95,-32.39,0,*61
1487941516.82,4180,9.69,71736.8,-8.65,-33.77,-32.13,0,*65
1487941518.1,4181,9.69,71750.0,-8.65,-34.35,-32.75,0,*65
1487941519.31,4182,9.69,71692.5,-8.63,-33.95,-32.39,0,*65
1487941520.56,4183,9.69,71714.8,-8.65,-34.01,-32.35,0,*64
1487941521.76,4184,9.69,71686.0,-8.63,-33.95,-32.35,0,*6F
1487941522.96,4185,9.69,71724.3,-8.63,-33.95,-32.23,0,*69
1487941524.19,4186,9.69,71686.8,-8.63,-33.77,-32.23,0,*66
1487941525.4,4187,9.69,71696.5,-8.63,-34.25,-32.51,0,*62
1487941526.62,4188,9.69,71696.5,-8.63,-33.77,-32.13,0,*6B
1487941527.86,4189,9.69,71684.8,-8.61,-34.07,-32.35,0,*6C
1487941529.12,4190,9.69,71660.0,-8.61,-34.25,-32.63,0,*67
1487941530.4,4191,9.69,71700.8,-8.61,-34.83,-32.79,0,*61
1487941531.64,4192,9.69,71698.3,-8.61,-33.37,-31.79,0,*69
1487941532.92,4193,9.69,71706.0,-8.61,-33.61,-32.07,0,*61
1487941534.2,4194,9.69,71702.0,-8.61,-33.89,-32.29,0,*6C
1487941535.44,4195,9.69,71696.8,-8.61,-34.25,-32.51,0,*63
1487941536.66,4196,9.69,71652.0,-8.59,-33.89,-32.23,0,*6F
1487941537.89,4197,9.69,71670.8,-8.61,-33.95,-32.51,0,*6D
1487941539.15,4198,9.69,71716.0,-8.55,-32.79,-31.23,0,*60
1487941540.38,4199,9.69,71738.8,-8.55,-32.91,-31.51,0,*62
1487941541.64,4200,9.69,71762.5,-8.51,-32.85,-31.45,0,*65
1487941542.86,4201,9.69,71770.0,-8.51,-32.91,-31.33,0,*60
1487941544.08,4202,9.69,71784.8,-8.49,-33.03,-31.45,0,*61
1487941545.33,4203,9.69,71802.8,-8.51,-33.61,-32.23,0,*6E
1487941546.56,4204,9.69,71788.5,-8.49,-34.07,-32.63,0,*63
1487941547.79,4205,9.69,71806.8,-8.49,-33.77,-32.35,0,*61
1487941549.01,4206,9.69,71816.8,-8.49,-33.61,-32.13,0,*61
1487941550.29,4207,9.69,71786.0,-8.47,-33.61,-32.19,0,*64
1487941551.57,4208,9.69,71762.5,-8.47,-33.61,-32.07,0,*64
1487941552.83,4209,9.69,71748.3,-8.49,-33.77,-32.63,0,*6E
1487941554.09,4210,9.69,71738.3,-8.49,-35.07,-33.43,0,*64
1487941555.32,4211,9.69,71756.5,-8.49,-34.41,-32.85,0,*6D
1487941556.55,4212,9.69,71776.0,-8.49,-33.89,-32.35,0,*66
1487941557.78,4213,9.69,71804.3,-8.49,-33.89,-32.51,0,*65
1487941559.02,4214,9.69,71794.3,-8.49,-34.53,-33.03,0,*64
1487941560.23,4215,9.69,71762.0,-8.49,-34.71,-33.21,0,*65
1487941561.48,4216,9.69,71702.5,-8.47,-35.23,-33.95,0,*61
1487941562.68,4217,9.69,71624.0,-8.49,-35.77,-34.25,0,*63
1487941563.94,4218,9.69,71674.5,-8.51,-35.65,-34.19,0,*69
1487941565.16,4219,9.69,71658.3,-8.55,-35.53,-34.07,0,*66
1487941566.35,4220,9.69,71664.0,-8.55,-35.47,-34.07,0,*69
1487941567.56,4221,9.69,71642.8,-8.55,-35.29,-33.83,0,*6B
1487941568.78,4222,9.69,71676.0,-8.55,-35.17,-33.73,0,*6A
1487941570.03,4223,9.69,71646.8,-8.55,-35.35,-33.89,0,*6E
1487941571.25,4224,9.69,71668.5,-8.59,-35.13,-33.73,0,*64
1487941572.47,4225,9.69,71672.8,-8.61,-35.77,-34.25,0,*68
1487941573.75,4226,9.69,71720.3,-8.61,-35.23,-33.89,0,*6B
1487941574.99,4227,9.69,71740.0,-8.61,-35.01,-33.55,0,*6B
1487941576.25,4228,9.69,71746.8,-8.61,-34.83,-33.37,0,*6B
1487941577.49,4229,9.69,71732.3,-8.63,-34.77,-33.43,0,*60
1487941578.69,4230,9.69,71728.0,-8.63,-34.89,-33.55,0,*6E
1487941579.91,4231,9.69,71726.8,-8.63,-34.89,-33.49,0,*62
1487941581.11,4232,9.69,71708.5,-8.63,-34.89,-33.55,0,*6C
1487941582.33,4233,9.69,71668.0,-8.63,-34.89,-33.61,0,*6A
1487941583.54,4234,9.69,71698.8,-8.63,-35.01,-33.55,0,*6B
1487941584.8,4235,9.69,71718.8,-8.65,-35.07,-33.67,0,*6B
1487941586.05,4236,9.69,71726.5,-8.65,-35.23,-33.83,0,*64
1487941587.3,4237,9.69,71790.0,-8.65,-35.13,-33.77,0,*6D
1487941588.52,4238,9.69,71774.3,-8.65,-34.89,-33.55,0,*60
1487941589.8,4239,9.69,71740.8,-8.65,-34.95,-33.61,0,*6B
1487941591.06,4240,9.69,71730.5,-8.65,-35.07,-33.67,0,*69
1487941592.29,4241,9.69,71746.0,-8.65,-34.89,-33.37,0,*6A
1487941593.52,4242,9.69,71726.5,-8.67,-35.23,-33.83,0,*65
1487941594.75,4243,9.69,71678.0,-8.67,-35.29,-34.01,0,*63
1487941595.96,4244,9.69,71696.3,-8.67,-35.13,-33.67,0,*6A
1487941597.16,4245,9.69,71668.8,-8.67,-34.89,-33.37,0,*6C
1487941598.4,4246,9.63,71706.3,-8.67,-34.95,-33.37,0,*62
1487941599.63,4247,9.69,71688.8,-8.69,-34.41,-33.15,0,*64
1487941600.91,4248,9.69,71692.8,-8.69,-34.35,-32.97,0,*63
1487941602.17,4249,9.69,71690.3,-8.67,-34.53,-33.09,0,*6A
1487941603.38,4250,9.69,71690.5,-8.67,-33.83,-32.35,0,*66
1487941604.64,4251,9.69,71656.5,-8.65,-34.31,-32.91,0,*65
1487941605.9,4252,9.69,71668.8,-8.65,-34.19,-32.69,0,*6B
1487941607.13,4253,9.69,71710.8,-8.65,-33.55,-32.01,0,*6B
1487941608.41,4254,9.69,71738.5,-8.65,-34.19,-32.75,0,*60
1487941609.67,4255,9.69,71768.0,-8.65,-34.31,-32.91,0,*61
1487941610.88,4256,9.69,71760.0,-8.63,-34.07,-32.51,0,*6D
1487941612.12,4257,9.69,71738.5,-8.63,-34.07,-32.63,0,*6D
1487941613.35,4258,9.69,71772.5,-8.63,-33.73,-32.35,0,*65
1487941614.61,4259,9.69,71814.5,-8.61,-33.77,-32.23,0,*65
1487941615.85,4260,9.69,71804.3,-8.61,-34.07,-32.51,0,*6A
1487941617.08,4261,9.69,71760.8,-8.61,-33.95,-32.69,0,*6C
1487941618.33,4262,9.69,71720.5,-8.59,-34.31,-32.97,0,*6C
1487941619.55,4263,9.63,71752.8,-8.59,-34.41,-32.97,0,*6A
1487941620.81,4264,9.69,71742.5,-8.59,-34.19,-32.79,0,*60
1487941622.05,4265,9.69,71672.3,-8.61,-34.71,-33.21,0,*68
1487941623.28,4266,9.69,71678.5,-8.61,-34.89,-33.37,0,*6B
1487941624.51,4267,9.69,71704.8,-8.61,-34.89,-33.55,0,*6E
1487941625.74,4268,9.69,71716.5,-8.59,-34.77,-33.27,0,*6E
1487941627.02,4269,9.69,71730.3,-8.61,-34.31,-32.97,0,*6C
1487941628.26,4270,9.69,71764.8,-8.59,-34.59,-33.27,0,*6B
1487941629.51,4271,9.69,71732.5,-8.59,-34.95,-33.49,0,*62
1487941630.73,4272,9.69,71680.0,-8.59,-35.01,-33.61,0,*67
1487941632.0,4273,9.69,71708.3,-8.61,-34.71,-33.31,0,*6E
1487941633.24,4274,9.69,71682.5,-8.61,-34.71,-33.21,0,*68
1487941634.49,4275,9.63,71668.3,-8.59,-34.83,-33.31,0,*6E
1487941635.76,4276,9.69,71706.3,-8.61,-34.65,-33.21,0,*6F
1487941637.0,4277,9.69,71688.8,-8.61,-34.59,-33.15,0,*66
1487941638.23,4278,9.63,71674.8,-8.61,-34.59,-33.15,0,*69
1487941639.47,4279,9.69,71672.0,-8.61,-34.89,-33.37,0,*65
1487941640.71,4280,9.69,71670.0,-8.61,-34.71,-33.21,0,*63
1487941641.94,4281,9.69,71666.8,-8.61,-33.95,-32.35,0,*6B
1487941643.16,4282,9.69,71696.3,-8.59,-34.41,-32.85,0,*66
1487941644.36,4283,9.69,71750.8,-8.59,-34.41,-32.91,0,*62
1487941645.59,4284,9.69,71752.0,-8.59,-34.41,-33.09,0,*65
1487941646.82,4285,9.69,71742.3,-8.59,-34.19,-32.91,0,*69
1487941648.04,4286,9.69,71732.5,-8.59,-34.25,-32.79,0,*63
1487941649.26,4287,9.69,71732.3,-8.59,-33.95,-32.63,0,*65
1487941650.46,4288,9.69,71726.3,-8.59,-33.67,-32.23,0,*63
1487941651.7,4289,9.69,71766.0,-8.61,-34.47,-33.03,0,*6F
1487941652.93,4290,9.69,71758.3,-8.59,-34.41,-33.09,0,*60
1487941654.19,4291,9.69,71742.3,-8.61,-34.25,-32.85,0,*6D
1487941655.44,4292,9.69,71714.3,-8.59,-34.19,-32.79,0,*69
1487941656.7,4293,9.63,71702.8,-8.61,-33.95,-32.63,0,*6B
1487941657.89,4294,9.69,71682.0,-8.59,-34.41,-33.15,0,*69
1487941659.12,4295,9.69,71706.8,-8.59,-34.53,-33.15,0,*6B
1487941660.37,4296,9.69,71688.3,-8.59,-33.77,-32.19,0,*64
1487941661.63,4297,9.69,71678.8,-8.59,-33.73,-32.29,0,*62
1487941662.84,4298,9.69,71700.0,-8.55,-35.47,-34.19,0,*65
1487941664.07,4299,9.69,71684.8,-8.61,-35.71,-34.41,0,*6B
1487941665.29,4300,9.69,71698.0,-8.59,-35.17,-33.77,0,*63
1487941666.53,4301,9.69,71676.5,-8.61,-35.41,-34.07,0,*6A
1487941667.79,4302,9.69,71698.0,-8.61,-35.23,-33.95,0,*61
1487941668.99,4303,9.69,71692.8,-8.63,-36.01,-34.71,0,*6C
1487941670.2,4304,9.69,71692.0,-8.63,-34.59,-33.21,0,*66
1487941671.45,4305,9.69,71680.0,-8.65,-33.77,-32.39,0,*62
1487941672.66,4306,9.69,71698.8,-8.63,-34.41,-33.03,0,*6D
1487941673.91,4307,9.69,71664.5,-8.65,-34.89,-33.61,0,*6A
1487941675.13,4308,9.69,71676.8,-8.63,-34.89,-33.61,0,*63
1487941676.35,4309,9.69,71694.8,-8.65,-35.29,-33.83,0,*63
1487941677.58,4310,9.69,71724.0,-8.65,-35.13,-33.67,0,*68
1487941678.87,4311,9.69,71744.0,-8.65,-34.19,-32.75,0,*60
1487941680.15,4312,9.69,71716.0,-8.65,-34.19,-32.75,0,*63
1487941681.39,4313,9.69,71724.3,-8.63,-34.25,-32.85,0,*64
1487941682.59,4314,9.69,71716.5,-8.63,-34.25,-32.69,0,*61
1487941683.88,4315,9.69,71686.5,-8.65,-34.19,-32.85,0,*6B
1487941685.16,4316,9.69,71640.8,-8.65,-34.65,-33.27,0,*6A
1487941686.43,4317,9.69,71656.3,-8.65,-34.77,-33.27,0,*68
1487941687.67,4318,9.69,71588.8,-8.65,-34.77,-33.37,0,*66
1487941688.89,4319,9.63,71526.8,-8.63,-34.89,-33.61,0,*63
1487941690.18,4320,9.69,71520.5,-8.65,-34.65,-33.27,0,*6F
1487941691.44,4321,9.69,71572.3,-8.65,-34.47,-33.27,0,*6E
1487941692.67,4322,9.69,71598.5,-8.65,-33.83,-32.57,0,*64
1487941693.92,4323,9.69,71730.5,-8.65,-33.77,-32.57,0,*6E
1487941695.14,4324,9.69,71692.8,-8.65,-33.55,-32.13,0,*69
1487941696.35,4325,9.69,71692.0,-8.63,-33.21,-31.79,0,*62
1487941697.58,4326,9.69,71706.8,-8.63,-33.37,-31.91,0,*60
1487941698.78,4327,9.69,71716.0,-8.63,-33.21,-31.79,0,*60
1487941700.01,4328,9.69,71766.5,-8.59,-34.07,-32.63,0,*6D
1487941701.22,4329,9.69,71732.5,-8.63,-34.47,-33.21,0,*66
1487941702.43,4330,9.63,71682.5,-8.63,-34.59,-33.21,0,*61
1487941703.71,4331,9.63,71684.8,-8.61,-34.83,-33.49,0,*6B
1487941704.94,4332,9.69,71678.0,-8.65,-34.89,-33.37,0,*6F
1487941706.21,4333,9.69,71654.0,-8.65,-34.65,-33.37,0,*6C
1487941707.44,4334,9.69,71646.5,-8.65,-34.77,-33.55,0,*6C
1487941708.72,4335,9.69,71704.8,-8.65,-35.07,-33.77,0,*6B
1487941709.98,4336,9.69,71718.0,-8.65,-34.89,-33.43,0,*68
1487941711.22,4337,9.69,71724.3,-8.65,-34.71,-33.37,0,*6D
1487941712.45,4338,9.69,71800.3,-8.65,-34.89,-33.37,0,*65
1487941713.71,4339,9.69,71798.3,-8.65,-34.53,-33.21,0,*64